#�ϑ�����,���ϕ���,���ϕ���,�ő啗��,�ő啗����������,�ő�u�ԕ���,�ő�u�ԕ�����������
#(�N����),(m/s)   ,(16����),(m/s)   ,(16����)        ,(m/s)       ,(16����)            
2017/3/22 0:01,3.6,16,3.6,16,10.1,14
2017/3/22 0:02,4,16,4,16,10.6,15
2017/3/22 0:03,4,16,4,16,6.3,16
2017/3/22 0:04,4,16,4.1,16,8.7,15
2017/3/22 0:05,4.3,16,4.3,16,12.2,1
2017/3/22 0:06,4.6,16,4.6,16,11.7,16
2017/3/22 0:07,4.9,16,4.9,16,8.7,16
2017/3/22 0:08,5.2,16,5.2,16,8.5,16
2017/3/22 0:09,5.3,16,5.3,16,6.4,15
2017/3/22 0:10,5.1,16,5.3,16,5.6,1
2017/3/22 0:11,5,1,5.1,16,4.5,16
2017/3/22 0:12,4.7,1,4.9,16,8.1,16
2017/3/22 0:13,5.3,1,5.3,16,14.3,14
2017/3/22 0:14,5.5,16,5.5,16,12.1,15
2017/3/22 0:15,5.1,16,5.5,16,8.2,13
2017/3/22 0:16,4.5,16,5.1,16,3,16
2017/3/22 0:17,4.1,16,4.4,16,3.7,3
2017/3/22 0:18,3.8,16,4.1,16,2.4,2
2017/3/22 0:19,3.5,16,3.7,16,2.5,16
2017/3/22 0:20,3.4,16,3.5,16,2.6,13
2017/3/22 0:21,3.2,16,3.4,16,3,16
2017/3/22 0:22,2.9,16,3.2,16,1.5,15
2017/3/22 0:23,2.1,15,2.9,16,2.6,15
2017/3/22 0:24,1.6,15,2.1,16,2,14
2017/3/22 0:25,1.4,16,1.5,16,4.9,15
2017/3/22 0:26,1.6,16,1.6,16,6.4,1
2017/3/22 0:27,1.7,15,1.7,16,6.7,15
2017/3/22 0:28,2,15,2,16,7.6,16
2017/3/22 0:29,2.2,15,2.2,16,4.5,1
2017/3/22 0:30,2.3,15,2.3,16,4.4,15
2017/3/22 0:31,2.3,15,2.3,16,2.6,13
2017/3/22 0:32,2.4,15,2.4,16,2.4,13
2017/3/22 0:33,2.3,15,2.4,15,1.6,12
2017/3/22 0:34,2.4,15,2.4,15,5.1,15
2017/3/22 0:35,2.6,16,2.6,15,6,15
2017/3/22 0:36,2.5,15,2.6,15,4.5,2
2017/3/22 0:37,2.5,16,2.6,15,5,15
2017/3/22 0:38,2.1,16,2.4,15,1.6,9
2017/3/22 0:39,1.9,15,2.1,15,1.9,8
2017/3/22 0:40,1.7,15,1.9,15,1.1,13
2017/3/22 0:41,1.8,16,1.8,15,4.1,1
2017/3/22 0:42,2,1,2,15,4.1,3
2017/3/22 0:43,2.3,1,2.3,15,5.5,2
2017/3/22 0:44,2.4,1,2.5,15,5.6,1
2017/3/22 0:45,2.3,1,2.4,16,4.9,1
2017/3/22 0:46,2.4,16,2.4,15,7.2,16
2017/3/22 0:47,2.2,16,2.4,1,1.6,14
2017/3/22 0:48,2.4,16,2.4,1,4.8,15
2017/3/22 0:49,2.6,16,2.6,16,4.4,15
2017/3/22 0:50,3,16,3,16,8.9,14
2017/3/22 0:51,3.1,16,3.1,16,6,16
2017/3/22 0:52,2.9,16,3.1,16,3.2,12
2017/3/22 0:53,2.6,16,2.8,16,3.8,2
2017/3/22 0:54,2.7,16,2.7,16,6.3,2
2017/3/22 0:55,2.6,16,2.7,16,6.7,16
2017/3/22 0:56,2.5,16,2.6,16,4.4,1
2017/3/22 0:57,2.5,16,2.5,16,2.5,16
2017/3/22 0:58,2.5,16,2.5,16,3.7,1
2017/3/22 0:59,2.3,16,2.5,16,3.6,9
2017/3/22 1:00,2.1,1,2.3,16,5.6,8
2017/3/22 1:01,2,2,2,16,4.5,1
2017/3/22 1:02,2.1,2,2.1,16,4.3,16
2017/3/22 1:03,2,1,2.1,16,1.8,16
2017/3/22 1:04,1.7,1,2,16,3.7,15
2017/3/22 1:05,1.7,1,1.7,16,3.7,15
2017/3/22 1:06,1.7,1,1.7,16,3.1,15
2017/3/22 1:07,1.7,16,1.7,16,2.5,9
2017/3/22 1:08,1.8,16,1.8,16,4.8,14
2017/3/22 1:09,2,16,2,16,5.1,1
2017/3/22 1:10,2,16,2,2,5.6,1
2017/3/22 1:11,2.1,16,2.1,2,6,15
2017/3/22 1:12,2.2,15,2.2,15,4.7,16
2017/3/22 1:13,2.3,15,2.3,15,5,16
2017/3/22 1:14,2.6,15,2.6,15,6.1,16
2017/3/22 1:15,2.8,15,2.8,15,6.9,15
2017/3/22 1:16,2.9,15,2.9,15,4.9,14
2017/3/22 1:17,3,15,3,15,5,11
2017/3/22 1:18,2.9,15,3,15,3.7,8
2017/3/22 1:19,2.8,15,3,15,5.7,6
2017/3/22 1:20,2.9,15,2.9,15,6.8,1
2017/3/22 1:21,3.3,15,3.3,15,11.3,16
2017/3/22 1:22,3.4,15,3.4,15,6.7,16
2017/3/22 1:23,3.5,15,3.5,15,6.7,16
2017/3/22 1:24,3.3,15,3.5,15,3.5,15
2017/3/22 1:25,3.1,15,3.3,15,3,16
2017/3/22 1:26,3.1,16,3.1,15,5.6,16
2017/3/22 1:27,3.4,16,3.4,15,12.2,16
2017/3/22 1:28,3.7,16,3.7,16,10.7,15
2017/3/22 1:29,3.8,16,3.8,16,5.1,16
2017/3/22 1:30,3.6,16,3.8,16,3.3,4
2017/3/22 1:31,3.1,16,3.6,16,3.5,1
2017/3/22 1:32,3.2,16,3.2,16,7.1,15
2017/3/22 1:33,3.3,16,3.3,16,9.1,15
2017/3/22 1:34,3.4,16,3.4,16,4.3,13
2017/3/22 1:35,3.3,15,3.4,16,2.4,12
2017/3/22 1:36,3.1,15,3.3,16,1.8,12
2017/3/22 1:37,2.7,15,3.1,16,3.7,1
2017/3/22 1:38,2.5,16,2.7,16,3.3,1
2017/3/22 1:39,2.4,16,2.5,16,7.5,2
2017/3/22 1:40,2.4,16,2.5,16,3.3,16
2017/3/22 1:41,2.4,15,2.5,16,3,2
2017/3/22 1:42,2.3,16,2.4,16,4.3,2
2017/3/22 1:43,2.1,16,2.3,16,6.4,15
2017/3/22 1:44,2.2,16,2.2,16,7,16
2017/3/22 1:45,2.4,16,2.4,15,4.2,10
2017/3/22 1:46,2.6,16,2.6,15,6.4,9
2017/3/22 1:47,2.7,16,2.7,15,4.9,9
2017/3/22 1:48,2.7,15,2.7,16,4.1,8
2017/3/22 1:49,2.6,14,2.6,16,6,16
2017/3/22 1:50,2.9,14,2.9,14,6.2,14
2017/3/22 1:51,3.2,14,3.2,14,7.6,14
2017/3/22 1:52,3.3,13,3.3,14,5.2,14
2017/3/22 1:53,3.1,13,3.3,14,4.4,14
2017/3/22 1:54,3.1,13,3.1,14,5.4,1
2017/3/22 1:55,3.3,14,3.3,14,7.8,1
2017/3/22 1:56,3.7,15,3.7,15,9.5,15
2017/3/22 1:57,3.8,15,3.8,15,7,14
2017/3/22 1:58,3.9,15,3.9,15,7,1
2017/3/22 1:59,4.2,15,4.2,15,9.8,15
2017/3/22 2:00,4.1,15,4.3,15,7.5,14
2017/3/22 2:01,3.9,15,4.1,15,3.2,14
2017/3/22 2:02,3.8,15,3.9,15,5,13
2017/3/22 2:03,4.1,15,4.1,15,7.7,16
2017/3/22 2:04,4.2,15,4.2,15,7.4,1
2017/3/22 2:05,4.1,15,4.2,15,7.9,16
2017/3/22 2:06,3.7,15,4,15,3.8,16
2017/3/22 2:07,3.4,15,3.6,15,2.7,8
2017/3/22 2:08,3.2,15,3.4,15,2.9,8
2017/3/22 2:09,2.6,15,3.2,15,1.4,16
2017/3/22 2:10,2.4,16,2.6,15,2.5,16
2017/3/22 2:11,2.2,16,2.4,15,1.5,1
2017/3/22 2:12,2.1,1,2.2,15,3.1,6
2017/3/22 2:13,1.8,2,2.1,15,2.7,5
2017/3/22 2:14,1.4,2,1.7,15,1.1,15
2017/3/22 2:15,1.1,3,1.3,15,1.4,2
2017/3/22 2:16,0.9,3,1.1,15,1.8,12
2017/3/22 2:17,1,2,1,15,1.9,12
2017/3/22 2:18,0.9,1,1,15,1.3,11
2017/3/22 2:19,0.9,1,0.9,15,0.8,8
2017/3/22 2:20,0.8,14,0.9,16,2.1,9
2017/3/22 2:21,1.1,14,1.1,16,6.1,15
2017/3/22 2:22,1.2,14,1.3,1,6.1,16
2017/3/22 2:23,1.4,14,1.4,2,5.2,15
2017/3/22 2:24,1.6,14,1.6,14,4.9,16
2017/3/22 2:25,1.8,14,1.8,14,4.2,2
2017/3/22 2:26,1.9,14,1.9,14,3.8,1
2017/3/22 2:27,1.9,15,1.9,14,2.2,11
2017/3/22 2:28,2.1,15,2.1,15,3.3,10
2017/3/22 2:29,2.3,15,2.3,15,4.9,11
2017/3/22 2:30,2.4,15,2.4,15,5.7,13
2017/3/22 2:31,2.4,14,2.5,15,5,13
2017/3/22 2:32,2.2,14,2.4,15,2.4,13
2017/3/22 2:33,2.3,14,2.3,15,6.7,15
2017/3/22 2:34,2.4,15,2.4,15,6.8,16
2017/3/22 2:35,2.5,15,2.5,15,6.9,2
2017/3/22 2:36,2.7,15,2.7,15,5.8,16
2017/3/22 2:37,2.9,15,2.9,14,6,15
2017/3/22 2:38,2.9,15,2.9,14,4.4,13
2017/3/22 2:39,3.1,15,3.1,15,7.9,15
2017/3/22 2:40,3.4,16,3.4,16,6.8,15
2017/3/22 2:41,3.3,16,3.4,16,3.9,2
2017/3/22 2:42,3.3,16,3.3,16,2.1,14
2017/3/22 2:43,3,16,3.3,16,3.6,1
2017/3/22 2:44,2.9,16,3.1,16,4.9,16
2017/3/22 2:45,2.9,16,2.9,16,3.6,16
2017/3/22 2:46,2.8,16,2.9,16,4.7,15
2017/3/22 2:47,2.8,16,2.8,16,5.6,16
2017/3/22 2:48,2.8,16,2.8,16,5,15
2017/3/22 2:49,2.5,15,2.8,16,3.9,16
2017/3/22 2:50,2.2,15,2.4,16,3.9,11
2017/3/22 2:51,2.2,15,2.2,16,4.1,11
2017/3/22 2:52,2.3,15,2.3,16,3,1
2017/3/22 2:53,2.4,15,2.4,16,3.9,16
2017/3/22 2:54,2.3,15,2.4,16,4.2,16
2017/3/22 2:55,2.1,15,2.3,16,0.9,3
2017/3/22 2:56,1.9,15,2.1,16,1,7
2017/3/22 2:57,1.7,15,1.8,16,1.3,8
2017/3/22 2:58,1.3,16,1.6,16,0.3,8
2017/3/22 2:59,1.3,16,1.3,15,2.5,10
2017/3/22 3:00,1.2,16,1.3,15,2.9,10
2017/3/22 3:01,1.4,16,1.4,15,6.4,16
2017/3/22 3:02,1.5,1,1.5,15,4.9,15
2017/3/22 3:03,1.3,1,1.5,15,3.8,1
2017/3/22 3:04,1.3,1,1.3,15,2.4,13
2017/3/22 3:05,1.5,16,1.5,15,3.8,15
2017/3/22 3:06,1.8,15,1.8,15,5.7,16
2017/3/22 3:07,2,15,2,15,4.2,16
2017/3/22 3:08,2.3,15,2.3,15,5.5,16
2017/3/22 3:09,2.4,15,2.4,15,2.4,13
2017/3/22 3:10,2.4,15,2.4,15,4.1,9
2017/3/22 3:11,2.2,14,2.4,15,3,11
2017/3/22 3:12,2.1,14,2.2,15,3.1,1
2017/3/22 3:13,2.2,14,2.2,15,3.3,14
2017/3/22 3:14,2.1,15,2.2,15,2.4,15
2017/3/22 3:15,2.1,15,2.1,15,4.2,16
2017/3/22 3:16,2,15,2.1,15,3.8,15
2017/3/22 3:17,1.9,15,2,15,3.5,15
2017/3/22 3:18,1.8,15,1.9,15,2.7,6
2017/3/22 3:19,1.9,16,1.9,15,4.1,8
2017/3/22 3:20,1.8,1,1.9,15,2.6,2
2017/3/22 3:21,1.7,1,1.8,14,4.5,9
2017/3/22 3:22,1.7,1,1.7,14,3.7,1
2017/3/22 3:23,1.9,1,1.9,15,4.5,14
2017/3/22 3:24,2,1,2,15,4.5,16
2017/3/22 3:25,1.9,16,2,15,3.7,12
2017/3/22 3:26,2,16,2,15,5.2,14
2017/3/22 3:27,2,15,2,1,3.6,14
2017/3/22 3:28,2.2,15,2.2,15,4.7,16
2017/3/22 3:29,2.1,15,2.1,15,2.5,15
2017/3/22 3:30,2,14,2.1,15,1.8,12
2017/3/22 3:31,2,15,2,15,1.6,2
2017/3/22 3:32,2.2,15,2.2,15,6,2
2017/3/22 3:33,1.9,15,2.1,15,3.1,4
2017/3/22 3:34,2.1,15,2.1,15,3.7,15
2017/3/22 3:35,2,15,2.1,15,3,12
2017/3/22 3:36,1.8,15,2,15,2.7,13
2017/3/22 3:37,1.7,16,1.8,15,2.2,3
2017/3/22 3:38,1.6,1,1.7,15,2.1,1
2017/3/22 3:39,1.6,1,1.6,15,3.3,15
2017/3/22 3:40,1.9,16,1.9,15,5.7,15
2017/3/22 3:41,2.1,16,2.1,15,5.8,15
2017/3/22 3:42,2,15,2.1,15,6.1,15
2017/3/22 3:43,2.1,16,2.1,15,3.7,1
2017/3/22 3:44,2.1,16,2.1,15,3.6,2
2017/3/22 3:45,2.2,16,2.2,16,4.4,16
2017/3/22 3:46,2.2,16,2.3,16,3.8,16
2017/3/22 3:47,2.2,15,2.2,16,1.6,12
2017/3/22 3:48,2.1,15,2.2,16,2.5,9
2017/3/22 3:49,2,15,2.1,16,0.8,2
2017/3/22 3:50,1.8,15,2,16,3.2,12
2017/3/22 3:51,1.6,15,1.8,16,1.8,3
2017/3/22 3:52,1.5,16,1.5,16,2.9,5
2017/3/22 3:53,1.4,1,1.5,16,1.8,4
2017/3/22 3:54,1.2,1,1.4,16,0.8,3
2017/3/22 3:55,0.9,1,1.2,16,0.4,8
2017/3/22 3:56,0.9,1,0.9,16,3.8,15
2017/3/22 3:57,1.2,1,1.2,15,6,16
2017/3/22 3:58,1.6,1,1.6,15,9,16
2017/3/22 3:59,1.9,1,1.9,15,6.2,15
2017/3/22 4:00,2,1,2,1,4.2,15
2017/3/22 4:01,2.2,1,2.2,1,5.1,15
2017/3/22 4:02,2.3,16,2.3,16,3.2,13
2017/3/22 4:03,2.3,15,2.3,16,2.6,12
2017/3/22 4:04,2.4,14,2.4,15,2.9,13
2017/3/22 4:05,2.6,15,2.6,15,2,12
2017/3/22 4:06,2.7,15,2.7,15,3.8,2
2017/3/22 4:07,2.5,15,2.7,15,4.1,1
2017/3/22 4:08,2.3,15,2.5,15,4.3,2
2017/3/22 4:09,2.3,15,2.3,15,4.1,16
2017/3/22 4:10,2.2,15,2.3,15,3.7,16
2017/3/22 4:11,2.3,16,2.3,15,5.7,16
2017/3/22 4:12,2.4,16,2.4,15,5.2,16
2017/3/22 4:13,2.6,16,2.6,15,4.9,16
2017/3/22 4:14,2.5,16,2.6,15,4.8,15
2017/3/22 4:15,2.5,16,2.5,15,2.1,14
2017/3/22 4:16,2.5,16,2.5,15,3.8,1
2017/3/22 4:17,2.5,16,2.5,16,3.7,1
2017/3/22 4:18,2.5,16,2.5,16,5.6,16
2017/3/22 4:19,2.5,16,2.5,16,3.6,2
2017/3/22 4:20,2.7,16,2.7,16,6,16
2017/3/22 4:21,2.7,16,2.8,16,8.6,16
2017/3/22 4:22,2.9,16,2.9,16,7.4,2
2017/3/22 4:23,3.2,16,3.2,16,13.4,15
2017/3/22 4:24,3.5,16,3.5,16,13.2,15
2017/3/22 4:25,3.9,16,3.9,16,7.7,16
2017/3/22 4:26,4.2,16,4.2,16,11,16
2017/3/22 4:27,4.5,16,4.5,16,8.7,15
2017/3/22 4:28,4.7,16,4.7,16,12.2,14
2017/3/22 4:29,5.2,16,5.2,16,13.6,16
2017/3/22 4:30,5.4,16,5.4,16,10.1,16
2017/3/22 4:31,5.6,16,5.6,16,12.2,15
2017/3/22 4:32,5.9,16,5.9,16,12.4,15
2017/3/22 4:33,5.7,16,5.9,16,8.2,14
2017/3/22 4:34,5.7,16,5.7,16,10.1,1
2017/3/22 4:35,5.8,16,5.8,16,10.8,15
2017/3/22 4:36,5.9,16,5.9,16,10.7,16
2017/3/22 4:37,5.9,16,6,16,9.5,15
2017/3/22 4:38,5.6,16,5.9,16,5.8,16
2017/3/22 4:39,5.3,16,5.6,16,5.6,3
2017/3/22 4:40,5.1,16,5.3,16,6.1,16
2017/3/22 4:41,5.1,16,5.2,16,9,14
2017/3/22 4:42,4.8,16,5,16,7.1,1
2017/3/22 4:43,4.8,16,4.8,16,8.1,15
2017/3/22 4:44,4.8,16,4.9,16,9.5,15
2017/3/22 4:45,4.8,16,4.9,16,8.2,15
2017/3/22 4:46,4.7,16,4.8,16,7.7,16
2017/3/22 4:47,4.7,16,4.7,16,7.9,15
2017/3/22 4:48,4.8,16,4.9,16,7.6,16
2017/3/22 4:49,5,16,5,16,9.2,1
2017/3/22 4:50,5.3,15,5.3,16,9,16
2017/3/22 4:51,5.3,16,5.4,16,10.5,15
2017/3/22 4:52,5.3,16,5.4,16,7.4,16
2017/3/22 4:53,5.2,16,5.3,16,6.1,15
2017/3/22 4:54,4.9,16,5.2,16,6.1,14
2017/3/22 4:55,4.6,15,4.8,16,3,15
2017/3/22 4:56,4.5,15,4.5,16,9.1,16
2017/3/22 4:57,4.4,15,4.5,16,7.2,16
2017/3/22 4:58,4.3,15,4.4,16,6.1,15
2017/3/22 4:59,3.9,15,4.3,16,3.3,15
2017/3/22 5:00,3.5,15,3.9,16,5.2,16
2017/3/22 5:01,3.1,15,3.5,16,6,1
2017/3/22 5:02,3,15,3.2,16,6.3,15
2017/3/22 5:03,3,15,3,16,6.1,16
2017/3/22 5:04,3,15,3,16,8.4,15
2017/3/22 5:05,3.2,16,3.2,15,9.1,16
2017/3/22 5:06,3.1,16,3.3,15,7.7,16
2017/3/22 5:07,3,15,3,15,6.2,16
2017/3/22 5:08,3.3,16,3.3,15,9.2,16
2017/3/22 5:09,3.7,16,3.7,15,9.4,1
2017/3/22 5:10,3.8,16,3.8,16,7,1
2017/3/22 5:11,3.9,16,3.9,16,6.2,15
2017/3/22 5:12,3.8,16,3.9,16,3,2
2017/3/22 5:13,3.8,16,3.9,16,6.4,15
2017/3/22 5:14,4.1,16,4.1,16,8.1,1
2017/3/22 5:15,3.9,16,4.1,16,5.2,16
2017/3/22 5:16,4,16,4,16,7,16
2017/3/22 5:17,4,16,4,16,5.7,15
2017/3/22 5:18,4.1,16,4.1,16,11.8,15
2017/3/22 5:19,3.9,16,4.1,16,6.7,16
2017/3/22 5:20,3.9,16,4,16,8.5,16
2017/3/22 5:21,4.1,16,4.1,16,11.3,15
2017/3/22 5:22,4.3,16,4.3,15,6.2,16
2017/3/22 5:23,4.3,16,4.3,15,5.6,15
2017/3/22 5:24,4.2,15,4.2,15,7.7,15
2017/3/22 5:25,4.6,15,4.6,15,8.7,15
2017/3/22 5:26,4.6,15,4.7,15,9,16
2017/3/22 5:27,5,15,5,15,13.3,15
2017/3/22 5:28,4.9,15,5,15,8.4,15
2017/3/22 5:29,5,15,5,15,7.8,14
2017/3/22 5:30,4.9,15,5,15,9.4,15
2017/3/22 5:31,4.8,15,5,15,9.1,16
2017/3/22 5:32,5,15,5,15,9.4,16
2017/3/22 5:33,5.1,15,5.1,15,12.8,15
2017/3/22 5:34,5.3,16,5.3,15,14.5,14
2017/3/22 5:35,5.3,16,5.4,16,13.1,15
2017/3/22 5:36,5.2,15,5.2,16,8.2,16
2017/3/22 5:37,5.2,15,5.3,16,9.9,16
2017/3/22 5:38,5.3,15,5.3,16,9.8,15
2017/3/22 5:39,5.5,16,5.5,16,10.1,14
2017/3/22 5:40,5.6,16,5.6,16,8.2,14
2017/3/22 5:41,5.6,16,5.6,16,6.9,15
2017/3/22 5:42,5.5,16,5.6,16,8.4,15
2017/3/22 5:43,5.4,16,5.5,16,6.9,1
2017/3/22 5:44,5.3,16,5.4,16,10.7,15
2017/3/22 5:45,5.2,15,5.3,16,8.6,14
2017/3/22 5:46,5.1,15,5.2,16,8.7,15
2017/3/22 5:47,5,15,5.1,16,10.6,15
2017/3/22 5:48,4.8,15,5,16,9.4,15
2017/3/22 5:49,4.8,15,4.9,16,8.2,15
2017/3/22 5:50,5,16,5,16,13.1,15
2017/3/22 5:51,5.2,15,5.2,16,8.1,16
2017/3/22 5:52,5.3,15,5.3,16,11.4,15
2017/3/22 5:53,5.3,16,5.3,16,9.5,16
2017/3/22 5:54,4.9,16,5.3,16,5,1
2017/3/22 5:55,4.8,16,4.9,15,5.4,15
2017/3/22 5:56,4.7,16,4.9,15,6.8,15
2017/3/22 5:57,4.5,16,4.7,15,6.1,16
2017/3/22 5:58,4.2,16,4.5,15,5.7,15
2017/3/22 5:59,4,16,4.2,15,6,1
2017/3/22 6:00,3.8,16,4.1,15,8.2,14
2017/3/22 6:01,3.7,16,3.8,15,9.1,14
2017/3/22 6:02,3.9,16,3.9,15,13.1,16
2017/3/22 6:03,4.1,16,4.1,16,8.6,15
2017/3/22 6:04,4.5,16,4.5,16,12.8,16
2017/3/22 6:05,4.9,16,4.9,16,12.1,15
2017/3/22 6:06,5.1,16,5.1,16,10,14
2017/3/22 6:07,5.3,16,5.3,16,9.4,14
2017/3/22 6:08,5.7,16,5.7,16,10.2,16
2017/3/22 6:09,5.7,15,5.8,16,7.9,1
2017/3/22 6:10,5.5,15,5.6,16,6.7,15
2017/3/22 6:11,5.6,16,5.7,16,7.5,16
2017/3/22 6:12,5.4,16,5.6,16,9,16
2017/3/22 6:13,5.2,15,5.3,16,7.9,16
2017/3/22 6:14,5,15,5.2,16,9.1,16
2017/3/22 6:15,4.8,15,5,16,8.2,15
2017/3/22 6:16,4.8,15,4.9,16,9.7,16
2017/3/22 6:17,4.9,15,4.9,16,8.2,14
2017/3/22 6:18,4.7,15,4.9,16,9,16
2017/3/22 6:19,4.9,15,4.9,16,9.4,15
2017/3/22 6:20,5,15,5,16,8.1,14
2017/3/22 6:21,5.3,15,5.3,16,12.2,15
2017/3/22 6:22,5.3,15,5.4,15,10.5,14
2017/3/22 6:23,5.2,15,5.4,15,10.1,16
2017/3/22 6:24,5.2,15,5.2,15,7.5,16
2017/3/22 6:25,5.2,15,5.2,15,11.1,15
2017/3/22 6:26,5,15,5.2,15,6.9,15
2017/3/22 6:27,5.1,15,5.1,15,9.1,16
2017/3/22 6:28,5.1,15,5.2,15,13.1,15
2017/3/22 6:29,5.3,15,5.3,15,11.9,15
2017/3/22 6:30,5.3,15,5.3,15,10.6,1
2017/3/22 6:31,5.3,15,5.4,15,11.8,16
2017/3/22 6:32,5.4,15,5.4,15,11,15
2017/3/22 6:33,5.6,15,5.6,15,10.6,16
2017/3/22 6:34,5.7,16,5.7,16,9.1,16
2017/3/22 6:35,5.8,16,5.8,15,9.7,15
2017/3/22 6:36,6.1,16,6.1,16,9.9,15
2017/3/22 6:37,6.4,16,6.4,16,16.3,16
2017/3/22 6:38,6.7,16,6.7,16,12.3,16
2017/3/22 6:39,6.3,16,6.6,16,6.3,15
2017/3/22 6:40,6.1,16,6.3,16,4.7,16
2017/3/22 6:41,5.7,16,6,16,7.5,16
2017/3/22 6:42,5.6,16,5.8,16,11.3,16
2017/3/22 6:43,5.9,16,5.9,16,12.6,16
2017/3/22 6:44,6,16,6,16,13.1,16
2017/3/22 6:45,5.9,16,5.9,16,10,16
2017/3/22 6:46,6.1,16,6.1,16,12.7,16
2017/3/22 6:47,5.9,16,6,16,14,16
2017/3/22 6:48,6,16,6,16,11.7,1
2017/3/22 6:49,6,16,6,16,11.4,15
2017/3/22 6:50,6.6,16,6.6,16,13,16
2017/3/22 6:51,6.8,16,6.8,16,10.9,16
2017/3/22 6:52,6.7,16,6.8,16,6.2,16
2017/3/22 6:53,6.3,16,6.7,16,10.5,14
2017/3/22 6:54,6.2,16,6.3,16,8.4,15
2017/3/22 6:55,6.1,16,6.2,16,8.1,16
2017/3/22 6:56,5.7,16,6.1,16,8.2,15
2017/3/22 6:57,5.4,16,5.7,16,10,16
2017/3/22 6:58,5.1,16,5.4,16,9.5,16
2017/3/22 6:59,5.3,16,5.3,16,12.1,15
2017/3/22 7:00,4.8,16,5.2,16,6.5,16
2017/3/22 7:01,4.4,16,4.7,16,5.4,16
2017/3/22 7:02,4.4,16,4.4,16,8.6,14
2017/3/22 7:03,4.3,16,4.4,16,11.6,15
2017/3/22 7:04,4.4,16,4.5,16,8.3,16
2017/3/22 7:05,4.5,16,4.5,16,8.4,16
2017/3/22 7:06,4.5,16,4.5,16,9.7,16
2017/3/22 7:07,4.6,16,4.7,16,11.8,16
2017/3/22 7:08,4.8,16,4.9,16,8.4,16
2017/3/22 7:09,4.7,16,4.8,16,7.8,14
2017/3/22 7:10,4.8,15,4.8,16,8.4,16
2017/3/22 7:11,5,15,5,15,4.9,15
2017/3/22 7:12,4.9,15,5,15,5.6,16
2017/3/22 7:13,5,15,5,15,7.8,16
2017/3/22 7:14,5,15,5.1,15,10.3,14
2017/3/22 7:15,5.1,15,5.1,15,8.5,1
2017/3/22 7:16,5.2,15,5.2,15,9.1,14
2017/3/22 7:17,4.9,15,5.1,15,7.6,1
2017/3/22 7:18,4.8,15,4.9,15,7.9,16
2017/3/22 7:19,4.8,16,4.9,15,8.1,16
2017/3/22 7:20,4.8,16,4.8,15,9.3,16
2017/3/22 7:21,4.9,16,4.9,15,7.2,14
2017/3/22 7:22,4.8,16,4.9,15,4.5,13
2017/3/22 7:23,4.6,16,4.8,15,6,4
2017/3/22 7:24,4.2,15,4.5,15,3.8,15
2017/3/22 7:25,4,15,4.2,15,6.5,13
2017/3/22 7:26,3.8,15,4,16,5.2,15
2017/3/22 7:27,3.7,15,3.8,15,4.7,14
2017/3/22 7:28,3.7,15,3.8,15,7,16
2017/3/22 7:29,3.5,15,3.6,16,5.4,1
2017/3/22 7:30,3.4,15,3.5,16,8.2,15
2017/3/22 7:31,3.3,15,3.4,16,7.4,15
2017/3/22 7:32,3.4,15,3.4,16,7,15
2017/3/22 7:33,3.6,15,3.6,16,9.2,16
2017/3/22 7:34,3.9,15,3.9,15,8.4,1
2017/3/22 7:35,4,15,4,15,8.9,15
2017/3/22 7:36,4.3,16,4.3,15,9.2,16
2017/3/22 7:37,4.5,16,4.5,16,7.4,15
2017/3/22 7:38,4.6,16,4.6,16,9.4,16
2017/3/22 7:39,4.8,16,4.8,16,9.9,15
2017/3/22 7:40,5,16,5,16,9.1,13
2017/3/22 7:41,4.9,16,5.1,16,9,15
2017/3/22 7:42,5,16,5,16,7.1,14
2017/3/22 7:43,4.8,16,5,16,6.7,16
2017/3/22 7:44,4.6,16,4.8,16,4.9,13
2017/3/22 7:45,4.5,15,4.6,16,5.6,14
2017/3/22 7:46,4,15,4.4,16,4.2,13
2017/3/22 7:47,3.9,15,4,16,7.2,16
2017/3/22 7:48,3.6,15,3.9,16,4.3,2
2017/3/22 7:49,3.3,15,3.6,16,6,16
2017/3/22 7:50,3,15,3.3,16,6.1,14
2017/3/22 7:51,3.3,15,3.3,16,8.7,16
2017/3/22 7:52,3.3,15,3.4,16,7.9,16
2017/3/22 7:53,3.5,15,3.5,16,8.2,14
2017/3/22 7:54,3.5,15,3.5,16,6.7,15
2017/3/22 7:55,3.5,15,3.6,15,4.7,15
2017/3/22 7:56,3.9,15,3.9,15,8.7,14
2017/3/22 7:57,3.8,15,3.9,15,5.6,15
2017/3/22 7:58,4,15,4,15,6.4,15
2017/3/22 7:59,4.2,15,4.2,15,8.7,14
2017/3/22 8:00,4.3,15,4.3,15,7.4,14
2017/3/22 8:01,4.3,15,4.4,15,7,12
2017/3/22 8:02,4.1,14,4.3,15,5.6,12
2017/3/22 8:03,3.9,14,4.1,15,4.5,14
2017/3/22 8:04,3.8,14,3.9,15,6.2,1
2017/3/22 8:05,3.9,14,3.9,15,6.7,13
2017/3/22 8:06,3.6,14,3.8,15,4.7,13
2017/3/22 8:07,3.5,14,3.6,15,5,15
2017/3/22 8:08,3.6,14,3.6,15,6.8,15
2017/3/22 8:09,3.5,14,3.6,15,6.5,14
2017/3/22 8:10,3.5,14,3.5,15,7.4,15
2017/3/22 8:11,3.3,14,3.5,15,6,16
2017/3/22 8:12,3.6,15,3.6,14,10.2,16
2017/3/22 8:13,3.6,15,3.6,14,6.3,16
2017/3/22 8:14,3.5,15,3.7,14,4.4,14
2017/3/22 8:15,3.4,15,3.5,14,5.2,1
2017/3/22 8:16,3.6,15,3.7,15,7.1,16
2017/3/22 8:17,3.6,15,3.6,15,4.3,15
2017/3/22 8:18,3.4,15,3.5,15,4.4,15
2017/3/22 8:19,3.3,16,3.4,15,5.6,15
2017/3/22 8:20,3.3,16,3.3,15,6.2,1
2017/3/22 8:21,3.5,16,3.5,15,10.1,15
2017/3/22 8:22,3.3,15,3.5,15,9.2,14
2017/3/22 8:23,3.4,15,3.4,15,7.4,11
2017/3/22 8:24,3.7,15,3.7,15,6.7,12
2017/3/22 8:25,3.8,15,3.8,15,6.3,15
2017/3/22 8:26,3.7,15,3.7,15,6.4,15
2017/3/22 8:27,3.8,15,3.8,15,6.9,16
2017/3/22 8:28,3.8,15,3.9,15,7.4,1
2017/3/22 8:29,3.8,14,3.8,15,4.2,14
2017/3/22 8:30,3.8,14,3.8,15,10.3,1
2017/3/22 8:31,3.9,14,4,14,10.1,14
2017/3/22 8:32,3.7,15,3.8,14,7.1,16
2017/3/22 8:33,3.4,15,3.7,14,2.9,16
2017/3/22 8:34,3.2,15,3.3,14,3.6,16
2017/3/22 8:35,3.3,15,3.3,14,6.5,13
2017/3/22 8:36,3.3,15,3.3,14,5.2,14
2017/3/22 8:37,3.2,15,3.3,14,6.8,8
2017/3/22 8:38,3,15,3.1,14,4.4,16
2017/3/22 8:39,2.9,15,3,14,3.1,14
2017/3/22 8:40,2.9,15,2.9,14,7.8,16
2017/3/22 8:41,2.6,15,2.9,14,3.9,14
2017/3/22 8:42,2.5,15,2.6,15,4.1,16
2017/3/22 8:43,2.7,15,2.7,15,4.4,16
2017/3/22 8:44,2.6,14,2.7,15,5.5,13
2017/3/22 8:45,2.6,14,2.7,15,7.5,15
2017/3/22 8:46,2.5,15,2.6,15,4.8,15
2017/3/22 8:47,2.7,15,2.7,15,5.4,16
2017/3/22 8:48,3,15,3,15,8.2,15
2017/3/22 8:49,3.4,15,3.4,15,11.3,16
2017/3/22 8:50,3.6,15,3.6,15,10.9,16
2017/3/22 8:51,3.7,15,3.7,15,5,15
2017/3/22 8:52,3.8,15,3.8,15,5.4,16
2017/3/22 8:53,3.8,15,3.9,15,4.3,14
2017/3/22 8:54,3.8,15,3.8,15,6.8,13
2017/3/22 8:55,3.9,15,3.9,15,6.8,14
2017/3/22 8:56,4,15,4,15,8.6,16
2017/3/22 8:57,4.1,15,4.2,15,6.7,16
2017/3/22 8:58,3.9,15,4.1,15,5,15
2017/3/22 8:59,3.7,15,3.9,15,6.2,15
2017/3/22 9:00,3.7,15,3.7,15,10,13
2017/3/22 9:01,3.7,15,3.8,15,6.7,14
2017/3/22 9:02,3.7,14,3.7,15,5.5,12
2017/3/22 9:03,3.7,14,3.7,15,3.5,12
2017/3/22 9:04,3.8,14,3.8,15,7.8,16
2017/3/22 9:05,4,15,4,15,8.2,16
2017/3/22 9:06,4,15,4.1,15,10.8,15
2017/3/22 9:07,4,15,4.1,15,7.6,14
2017/3/22 9:08,3.9,15,4,15,3.9,14
2017/3/22 9:09,3.9,14,4,15,7.6,15
2017/3/22 9:10,3.8,15,4,15,7.1,16
2017/3/22 9:11,3.9,15,3.9,15,7.4,15
2017/3/22 9:12,3.8,15,3.9,15,5,16
2017/3/22 9:13,4.1,16,4.1,15,7.2,15
2017/3/22 9:14,3.9,16,4.1,15,4.5,16
2017/3/22 9:15,3.7,16,3.9,15,7.7,15
2017/3/22 9:16,3.6,15,3.7,15,7.2,16
2017/3/22 9:17,3.7,16,3.7,16,7.2,16
2017/3/22 9:18,3.8,16,3.8,16,6.2,1
2017/3/22 9:19,3.7,16,3.8,16,6.9,14
2017/3/22 9:20,3.7,16,3.8,16,5.1,16
2017/3/22 9:21,3.5,16,3.7,16,5.4,16
2017/3/22 9:22,3.5,16,3.5,16,5.5,15
2017/3/22 9:23,3.7,16,3.7,16,9.7,16
2017/3/22 9:24,4,16,4,16,12.6,15
2017/3/22 9:25,4.3,16,4.3,16,12.2,16
2017/3/22 9:26,4.5,16,4.5,16,11.1,16
2017/3/22 9:27,4.7,16,4.7,16,12.5,16
2017/3/22 9:28,5,16,5,16,11.3,15
2017/3/22 9:29,5,16,5.1,16,7.6,15
2017/3/22 9:30,5.1,16,5.1,16,8.1,2
2017/3/22 9:31,5.1,16,5.1,16,8.1,15
2017/3/22 9:32,5.3,16,5.3,16,8.4,15
2017/3/22 9:33,5.2,16,5.3,16,9.1,16
2017/3/22 9:34,5,16,5.2,16,6.3,16
2017/3/22 9:35,5,16,5.1,16,12.2,16
2017/3/22 9:36,4.9,16,5.1,16,9.2,15
2017/3/22 9:37,4.9,16,4.9,16,10.1,15
2017/3/22 9:38,4.8,16,4.8,16,9.5,15
2017/3/22 9:39,4.8,16,4.8,16,7.1,1
2017/3/22 9:40,5.1,16,5.1,16,11.8,15
2017/3/22 9:41,5.5,16,5.5,16,10.5,15
2017/3/22 9:42,5.8,16,5.8,16,12.2,16
2017/3/22 9:43,5.7,16,5.9,16,10.9,1
2017/3/22 9:44,6,16,6,16,9.7,15
2017/3/22 9:45,5.9,16,6,16,11.8,15
2017/3/22 9:46,6.1,16,6.1,16,11.8,16
2017/3/22 9:47,6,16,6.1,16,8.5,16
2017/3/22 9:48,6.3,16,6.3,16,12.3,15
2017/3/22 9:49,6.5,16,6.5,16,8.9,16
2017/3/22 9:50,6,16,6.5,16,6.5,15
2017/3/22 9:51,5.6,16,5.9,16,7.6,15
2017/3/22 9:52,5.5,16,5.6,16,9.5,14
2017/3/22 9:53,5.5,16,5.5,16,10.2,16
2017/3/22 9:54,5.4,16,5.6,16,6.1,15
2017/3/22 9:55,5.1,16,5.4,16,7.4,15
2017/3/22 9:56,4.9,16,5.1,16,11,16
2017/3/22 9:57,4.8,16,4.9,16,6.8,16
2017/3/22 9:58,4.6,16,4.8,16,14.3,15
2017/3/22 9:59,5,16,5,16,14,16
2017/3/22 10:00,5.6,16,5.6,16,11.6,16
2017/3/22 10:01,5.8,16,5.9,16,10.2,16
2017/3/22 10:02,5.4,16,5.8,16,5.1,3
2017/3/22 10:03,5.2,16,5.4,16,5.5,14
2017/3/22 10:04,5.3,16,5.3,16,8.3,15
2017/3/22 10:05,5.5,16,5.5,16,9.8,1
2017/3/22 10:06,5.3,16,5.4,16,9.3,16
2017/3/22 10:07,5.3,16,5.4,16,9.5,15
2017/3/22 10:08,5.1,16,5.4,16,7.6,16
2017/3/22 10:09,4.5,16,5,16,8.6,16
2017/3/22 10:10,4.5,16,4.5,16,12.3,16
2017/3/22 10:11,4.5,16,4.5,16,8.7,16
2017/3/22 10:12,4.5,16,4.6,16,6.4,16
2017/3/22 10:13,4.5,16,4.5,16,4.8,2
2017/3/22 10:14,4.4,16,4.5,16,5.8,15
2017/3/22 10:15,4.5,16,4.5,16,11.3,1
2017/3/22 10:16,4.6,16,4.6,16,9.2,1
2017/3/22 10:17,4.7,16,4.7,16,9.2,16
2017/3/22 10:18,4.8,16,4.8,16,9.8,16
2017/3/22 10:19,4.9,16,4.9,16,7.7,16
2017/3/22 10:20,4.5,16,4.9,16,6.1,1
2017/3/22 10:21,4.6,16,4.6,16,11.7,16
2017/3/22 10:22,4.7,16,4.7,16,7.5,16
2017/3/22 10:23,4.7,16,4.8,16,5.2,2
2017/3/22 10:24,4.6,1,4.7,16,2.9,3
2017/3/22 10:25,4.2,1,4.5,16,5,2
2017/3/22 10:26,4,1,4.1,16,7.1,15
2017/3/22 10:27,3.8,16,4,16,6.4,14
2017/3/22 10:28,3.4,16,3.8,16,2.7,13
2017/3/22 10:29,3.1,16,3.4,16,3.9,16
2017/3/22 10:30,3,1,3.1,16,4.1,2
2017/3/22 10:31,2.7,1,3,16,4.5,16
2017/3/22 10:32,2.9,16,2.9,16,10.8,15
2017/3/22 10:33,3.4,16,3.4,16,11.1,15
2017/3/22 10:34,3.6,16,3.6,1,8.7,14
2017/3/22 10:35,3.8,16,3.8,1,7.4,16
2017/3/22 10:36,3.9,16,3.9,1,6.1,16
2017/3/22 10:37,3.8,16,3.9,16,6.9,16
2017/3/22 10:38,4.2,16,4.2,16,8.6,16
2017/3/22 10:39,4.1,16,4.2,16,3.6,4
2017/3/22 10:40,4,16,4.1,16,4.1,15
2017/3/22 10:41,4.1,16,4.1,16,6.9,14
2017/3/22 10:42,3.9,16,4.1,16,9.9,15
2017/3/22 10:43,3.6,16,3.9,16,6.2,16
2017/3/22 10:44,3.6,16,3.7,16,7.6,15
2017/3/22 10:45,3.6,16,3.6,16,7.5,15
2017/3/22 10:46,3.9,16,3.9,16,10.2,16
2017/3/22 10:47,4,16,4,16,7.1,14
2017/3/22 10:48,4,15,4,16,9,15
2017/3/22 10:49,4.3,15,4.4,15,9.9,1
2017/3/22 10:50,4.4,15,4.4,15,6.1,14
2017/3/22 10:51,4.4,15,4.4,15,9.1,15
2017/3/22 10:52,4.3,15,4.5,15,7.6,15
2017/3/22 10:53,4.4,15,4.4,15,7,15
2017/3/22 10:54,4.4,15,4.4,15,7.2,1
2017/3/22 10:55,4.6,15,4.6,15,9.5,15
2017/3/22 10:56,4.6,15,4.6,15,10,14